Search for airport 
image banner adimage banner adimage banner ad
image banner ad

PN78 - 600 Grant Street Rooftop

Located in Pittsburgh, United States

ICAO - PN78, IATA -

Data provided by Airmate  

General information

Coordinates: N40°26'31" W79°59'43"
Elevation is 1604 feet MSL.
Magnetic variation is -08° East
View others Airports in Pennsylvania

Operational data

Special qualification required
Current time UTC:
Current local time:
Weather at : KAGC - Allegheny County ( 11 km )
METAR: KAGC 182153Z 00000KT 10SM CLR 26/07 A3028 RMK AO2 SLP253 T02560067
TAF: KAGC 181726Z 1818/1918 10004KT P6SM SCT060 SCT250 FM182300 VRB03KT P6SM SCT250 FM191500 17004KT P6SM SCT040
View NOTAMs / SUP AIP / TFR affecting this airport [VIEW]
Communications frequencies: [VIEW]

Runways:

Airport contact information

Address: Pittsburgh United States

Satellite view of PN78